Flag for Canada Weather past 2 weeks in Moose Jaw, Saskatchewan, Canada

Now
52 °F

Clear.


Feels Like: 48 °F
Forecast: 50 / 79 °F
Wind: 10 mph from Southeast

Location: Regina Weather Station

Current Time: Aug 27, 2014 at 3:05:56 AM

Latest Report: Aug 27, 2014 at 2:00 AM


Visibility: 15 mi

Pressure: 30.06 "Hg

Humidity: 88%

Dew point: 48 °F

Location of Moose JawLocation

Historic Weather in Moose Jaw — Graph

°F

Moose Jaw temperature yesterday

Maximum temperature yesterday: 70 °F (at 2:00 PM)
Minimum temperature yesterday: 41 °F (at 4:00 AM)
Average temperature yesterday: 56 °F

Past Weeks' High & Low Weather Summary

 TemperatureHumidityPressure
High88 °F (Aug 14, 4:00 PM)100% (Aug 15, 7:00 AM)30.25 "Hg (Aug 15, 7:00 AM)
Low41 °F (Aug 26, 4:00 AM)40% (Aug 26, 2:00 PM)29.58 "Hg (Aug 20, 4:00 AM)
Average64 °F80%29.95 "Hg
* Reported Aug 12 2:00 AM — Aug 27 2:00 AM, Moose Jaw, Weather by CustomWeather, © 2014

Note: Actual official high and low records may vary slightly from our data, if they occured in-between our weather recording intervals... More about our weather records

Advertising

Moose Jaw weather history for previous 24 hours

 ConditionsComfort  
Time TempWeatherWind HumidityBarometerVisibility
2:00 AM
Aug 27
52 °FClear.10 mph88%30.06 "Hg15 mi
1:00 AM52 °FClear.10 mph94%30.06 "Hg15 mi
12:00 AM54 °FClear.9 mph82%30.07 "Hg15 mi
11:00 PM
Aug 26
57 °FClear.10 mph77%30.08 "Hg15 mi
10:00 PM59 °FClear.12 mph72%30.07 "Hg15 mi
9:00 PM57 °FPassing clouds.9 mph77%30.08 "Hg15 mi
8:00 PM61 °FClear.8 mph72%30.07 "Hg15 mi
7:00 PM68 °FSunny.5 mph60%30.07 "Hg15 mi
6:00 PM70 °FSunny.7 mph50%30.08 "Hg15 mi
5:00 PM70 °FSunny.9 mph50%30.09 "Hg15 mi
4:00 PM68 °FPassing clouds.6 mph49%30.10 "Hg15 mi
3:00 PM70 °FScattered clouds.10 mph50%30.10 "Hg15 mi
2:00 PM70 °FPassing clouds.10 mph40%30.11 "Hg15 mi
1:00 PM68 °FPassing clouds.7 mph43%30.13 "Hg15 mi
12:00 PM66 °FSunny.8 mph52%30.14 "Hg15 mi
11:00 AM63 °FSunny.8 mph64%30.16 "Hg15 mi
10:00 AM57 °FSunny.7 mph77%30.16 "Hg15 mi
9:00 AM54 °FScattered clouds.6 mph82%30.16 "Hg15 mi
8:00 AM50 °FPartly sunny.6 mph88%30.16 "Hg15 mi
7:00 AM45 °FPartly sunny.5 mph93%30.17 "Hg15 mi
6:00 AM43 °FPartly cloudy.5 mph93%30.17 "Hg15 mi
5:00 AM43 °FPassing clouds.6 mph93%30.14 "Hg15 mi
4:00 AM41 °FPassing clouds.7 mph93%30.13 "Hg15 mi
3:00 AM43 °FClear.5 mph93%30.13 "Hg15 mi
Weather by CustomWeather, © 2014

See weather overviewHow to use our weather pages